Home   Weather   Hürth   Past weeks
Flag for Germany

Past Weather in Hürth, North Rhine-Westphalia, Germany — Yesterday and Last 2 Weeks

Now
66 °F

Passing clouds.


Feels Like: 66 °F
Forecast: 67 / 54 °F
Wind: 6 mph from East

Location: Noervenich

Current Time: Oct 14, 2019 at 9:24:36 pm

Latest Report: Oct 14, 2019 at 8:20 pm


Visibility: N/A

Pressure: 29.77 "Hg

Humidity: 64%

Dew Point: 54 °F

Location of HürthLocation

Past Weather in Hürth — Graph

°F

Hürth Temperature Yesterday

Maximum temperature yesterday: 77 °F (at 2:20 pm)
Minimum temperature yesterday: 55 °F (at 1:20 am)
Average temperature yesterday: 67 °F

High & Low Weather Summary for the Past Weeks

 TemperatureHumidityPressure
High77 °F (Oct 13, 2:20 pm)100% (Oct 7, 4:20 am)30.09 "Hg (Oct 7, 4:20 am)
Low46 °F (Oct 2, 8:20 pm)50% (Oct 14, 3:20 pm)29.42 "Hg (Sep 29, 8:20 pm)
Average56 °F79%29.84 "Hg
* Reported Sep 29 7:20 pm — Oct 14 7:20 pm, Hürth. Weather by CustomWeather, © 2019

Note: Actual official high and low records may vary slightly from our data, if they occured in-between our weather recording intervals... More about our weather records

Advertising

Hürth Weather History for the Previous 24 Hours

Scroll right to see more
 ConditionsComfort  
Time TempWeatherWind HumidityBarometerVisibility
7:20 pm
Mon, Oct 14
70 °FPassing clouds.6 mph60%29.74 "HgN/A
6:20 pm70 °FPartly sunny.3 mph60%29.77 "HgN/A
5:20 pm73 °FPartly sunny.5 mph53%29.77 "HgN/A
4:39 pm75 °FBroken clouds.9 mph50%29.80 "HgN/A
3:20 pm75 °FBroken clouds.12 mph50%29.80 "HgN/A
2:20 pm72 °FBroken clouds.9 mph65%29.83 "HgN/A
1:20 pm70 °FBroken clouds.12 mph64%29.86 "HgN/A
12:20 pm68 °FPartly sunny.7 mph69%29.86 "HgN/A
11:20 am64 °FPartly sunny.6 mph73%29.89 "HgN/A
10:20 am61 °FPartly sunny.6 mph83%29.92 "HgN/A
9:20 am59 °FPartly sunny.5 mph82%29.92 "HgN/A
8:20 am57 °FPartly sunny.5 mph88%29.92 "HgN/A
7:20 am57 °FPartly cloudy.3 mph88%29.92 "HgN/A
7:06 am57 °FPartly cloudy.5 mph88%29.92 "HgN/A
6:20 am57 °FPassing clouds.3 mph94%29.92 "HgN/A
5:49 am55 °FPassing clouds.5 mph94%29.95 "HgN/A
5:20 am57 °FPassing clouds.2 mph88%29.95 "HgN/A
4:20 am59 °FSprinkles. Partly cloudy.7 mph82%29.95 "HgN/A
3:20 am61 °FSprinkles. Passing clouds.10 mph72%29.95 "HgN/A
2:20 am61 °FPartly cloudy.5 mph88%29.92 "HgN/A
1:20 am63 °FPassing clouds.6 mph88%29.92 "HgN/A
12:20 am66 °FPassing clouds.8 mph78%29.89 "HgN/A
11:20 pm
Sun, Oct 13
66 °FPassing clouds.5 mph78%29.89 "HgN/A
10:20 pm66 °FPartly cloudy.5 mph83%29.86 "HgN/A
9:20 pm70 °FMild.9 mph64%29.83 "HgN/A
Weather by CustomWeather, © 2019

See weather overview